Time,TemperatureF,DewpointF,PressureIn,WindDirection,WindDirectionDegrees,WindSpeedMPH,WindSpeedGustMPH,Humidity,HourlyPrecipIn,Conditions,Clouds,dailyrainin,SoftwareType,DateUTC
2013-04-20 00:00:00,43.9,11.2,30.05,West,268,2.0,5.0,26,0.00,,,0.00,VWS V14.01,2013-04-20 07:00:00,
2013-04-20 00:03:00,43.9,11.2,30.05,WSW,255,2.0,4.0,26,0.00,,,0.00,VWS V14.01,2013-04-20 07:03:00,
2013-04-20 00:08:00,43.8,12.0,30.05,WSW,246,1.0,4.0,27,0.00,,,0.00,VWS V14.01,2013-04-20 07:08:00,
2013-04-20 00:13:00,43.7,11.9,30.05,WSW,257,2.0,5.0,27,0.00,,,0.00,VWS V14.01,2013-04-20 07:13:00,
2013-04-20 00:18:00,43.6,11.8,30.05,WSW,247,2.0,5.0,27,0.00,,,0.00,VWS V14.01,2013-04-20 07:18:00,
2013-04-20 00:23:00,43.4,11.7,30.05,WSW,246,1.0,5.0,27,0.00,,,0.00,VWS V14.01,2013-04-20 07:23:00,
2013-04-20 00:28:00,43.2,11.5,30.05,WSW,246,0.0,5.0,27,0.00,,,0.00,VWS V14.01,2013-04-20 07:28:00,
2013-04-20 00:30:00,43.1,11.4,30.05,WSW,246,2.0,5.0,27,0.00,,,0.00,VWS V14.01,2013-04-20 07:30:00,
2013-04-20 00:33:00,42.9,11.2,30.05,WSW,256,3.0,3.0,27,0.00,,,0.00,VWS V14.01,2013-04-20 07:33:00,
2013-04-20 00:38:00,42.5,10.9,30.05,WSW,254,1.0,3.0,27,0.00,,,0.00,VWS V14.01,2013-04-20 07:38:00,
2013-04-20 00:43:00,42.2,10.6,30.05,WSW,253,2.0,3.0,27,0.00,,,0.00,VWS V14.01,2013-04-20 07:43:00,
2013-04-20 00:48:00,41.9,10.4,30.05,SW,229,2.0,4.0,27,0.00,,,0.00,VWS V14.01,2013-04-20 07:48:00,
2013-04-20 00:53:00,41.8,10.3,30.05,SW,229,3.0,4.0,27,0.00,,,0.00,VWS V14.01,2013-04-20 07:53:00,
2013-04-20 00:58:00,41.7,10.2,30.05,WSW,241,1.0,5.0,27,0.00,,,0.00,VWS V14.01,2013-04-20 07:58:00,
2013-04-20 01:00:00,41.7,10.2,30.05,WSW,258,3.0,5.0,27,0.00,,,0.00,VWS V14.01,2013-04-20 08:00:00,
2013-04-20 01:03:00,41.8,10.3,30.04,WSW,248,3.0,4.0,27,0.00,,,0.00,VWS V14.01,2013-04-20 08:03:00,
2013-04-20 01:08:00,42.0,10.5,30.04,WSW,243,2.0,5.0,27,0.00,,,0.00,VWS V14.01,2013-04-20 08:08:00,
2013-04-20 01:13:00,42.3,10.7,30.05,WSW,255,1.0,5.0,27,0.00,,,0.00,VWS V14.01,2013-04-20 08:13:00,
2013-04-20 01:18:00,42.2,10.6,30.04,WSW,256,3.0,5.0,27,0.00,,,0.00,VWS V14.01,2013-04-20 08:18:00,
2013-04-20 01:23:00,41.9,10.4,30.04,WSW,240,2.0,5.0,27,0.00,,,0.00,VWS V14.01,2013-04-20 08:23:00,
2013-04-20 01:28:00,41.7,11.0,30.04,West,260,2.0,5.0,28,0.00,,,0.00,VWS V14.01,2013-04-20 08:28:00,
2013-04-20 01:30:00,41.7,10.2,30.04,WSW,243,2.0,5.0,27,0.00,,,0.00,VWS V14.01,2013-04-20 08:30:00,
2013-04-20 01:33:00,41.7,10.2,30.04,WSW,254,2.0,4.0,27,0.00,,,0.00,VWS V14.01,2013-04-20 08:33:00,
2013-04-20 01:38:00,41.6,10.9,30.03,WSW,249,2.0,4.0,28,0.00,,,0.00,VWS V14.01,2013-04-20 08:38:00,
2013-04-20 01:43:00,41.4,11.5,30.03,WSW,257,2.0,4.0,29,0.00,,,0.00,VWS V14.01,2013-04-20 08:43:00,
2013-04-20 01:48:00,41.1,10.5,30.03,WSW,250,2.0,4.0,28,0.00,,,0.00,VWS V14.01,2013-04-20 08:48:00,
2013-04-20 01:53:00,40.9,9.5,30.03,SW,228,2.0,4.0,27,0.00,,,0.00,VWS V14.01,2013-04-20 08:53:00,
2013-04-20 01:58:00,40.8,10.2,30.03,SW,216,3.0,4.0,28,0.00,,,0.00,VWS V14.01,2013-04-20 08:58:00,
2013-04-20 02:00:00,40.8,10.2,30.03,SW,236,2.0,4.0,28,0.00,,,0.00,VWS V14.01,2013-04-20 09:00:00,
2013-04-20 02:03:00,40.8,9.4,30.03,WSW,249,2.0,4.0,27,0.00,,,0.00,VWS V14.01,2013-04-20 09:03:00,
2013-04-20 02:08:00,40.9,9.5,30.03,WSW,247,2.0,4.0,27,0.00,,,0.00,VWS V14.01,2013-04-20 09:08:00,
2013-04-20 02:13:00,41.1,9.7,30.03,SW,227,2.0,5.0,27,0.00,,,0.00,VWS V14.01,2013-04-20 09:13:00,
2013-04-20 02:18:00,41.1,9.7,30.03,WSW,243,2.0,5.0,27,0.00,,,0.00,VWS V14.01,2013-04-20 09:18:00,
2013-04-20 02:23:00,41.1,9.7,30.02,WSW,237,3.0,5.0,27,0.00,,,0.00,VWS V14.01,2013-04-20 09:23:00,
2013-04-20 02:28:00,41.1,9.7,30.02,SW,229,2.0,5.0,27,0.00,,,0.00,VWS V14.01,2013-04-20 09:28:00,
2013-04-20 02:30:00,41.1,9.7,30.03,SW,236,2.0,5.0,27,0.00,,,0.00,VWS V14.01,2013-04-20 09:30:00,
2013-04-20 02:33:00,41.0,9.6,30.03,SW,218,3.0,4.0,27,0.00,,,0.00,VWS V14.01,2013-04-20 09:33:00,
2013-04-20 02:38:00,40.9,9.5,30.02,SW,235,2.0,4.0,27,0.00,,,0.00,VWS V14.01,2013-04-20 09:38:00,
2013-04-20 02:43:00,40.9,9.5,30.03,SW,226,2.0,4.0,27,0.00,,,0.00,VWS V14.01,2013-04-20 09:43:00,
2013-04-20 02:48:00,40.9,10.3,30.03,West,263,3.0,4.0,28,0.00,,,0.00,VWS V14.01,2013-04-20 09:48:00,
2013-04-20 02:54:00,40.9,10.3,30.02,West,269,1.0,4.0,28,0.00,,,0.00,VWS V14.01,2013-04-20 09:54:00,
2013-04-20 02:59:00,40.8,11.0,30.03,West,259,2.0,4.0,29,0.00,,,0.00,VWS V14.01,2013-04-20 09:59:00,
2013-04-20 03:00:00,40.7,11.7,30.03,West,261,2.0,4.0,30,0.00,,,0.00,VWS V14.01,2013-04-20 10:00:00,
2013-04-20 03:04:00,40.5,11.5,30.03,WSW,244,1.0,4.0,30,0.00,,,0.00,VWS V14.01,2013-04-20 10:04:00,
2013-04-20 03:09:00,40.2,11.3,30.03,West,265,2.0,4.0,30,0.00,,,0.00,VWS V14.01,2013-04-20 10:09:00,
2013-04-20 03:14:00,39.9,11.0,30.03,West,264,3.0,4.0,30,0.00,,,0.00,VWS V14.01,2013-04-20 10:14:00,
2013-04-20 03:19:00,39.6,10.7,30.02,WSW,241,2.0,4.0,30,0.00,,,0.00,VWS V14.01,2013-04-20 10:19:00,
2013-04-20 03:24:00,39.3,10.5,30.02,WSW,253,2.0,4.0,30,0.00,,,0.00,VWS V14.01,2013-04-20 10:24:00,
2013-04-20 03:29:00,39.1,10.3,30.02,WSW,248,1.0,4.0,30,0.00,,,0.00,VWS V14.01,2013-04-20 10:29:00,
2013-04-20 03:30:00,39.0,10.2,30.02,WSW,247,2.0,4.0,30,0.00,,,0.00,VWS V14.01,2013-04-20 10:30:00,
2013-04-20 03:34:00,38.9,10.1,30.03,West,268,3.0,3.0,30,0.00,,,0.00,VWS V14.01,2013-04-20 10:34:00,
2013-04-20 03:39:00,39.0,10.2,30.03,WSW,254,2.0,4.0,30,0.00,,,0.00,VWS V14.01,2013-04-20 10:39:00,
2013-04-20 03:44:00,39.2,10.4,30.02,SW,219,2.0,5.0,30,0.00,,,0.00,VWS V14.01,2013-04-20 10:44:00,
2013-04-20 03:49:00,39.3,10.5,30.02,SW,236,3.0,5.0,30,0.00,,,0.00,VWS V14.01,2013-04-20 10:49:00,
2013-04-20 03:54:00,39.3,10.5,30.02,WSW,251,3.0,5.0,30,0.00,,,0.00,VWS V14.01,2013-04-20 10:54:00,
2013-04-20 03:59:00,39.5,10.6,30.02,SW,228,2.0,5.0,30,0.00,,,0.00,VWS V14.01,2013-04-20 10:59:00,
2013-04-20 04:00:00,39.5,10.6,30.02,SW,228,2.0,5.0,30,0.00,,,0.00,VWS V14.01,2013-04-20 11:00:00,
2013-04-20 04:04:00,39.4,10.6,30.02,WSW,252,2.0,3.0,30,0.00,,,0.00,VWS V14.01,2013-04-20 11:04:00,
2013-04-20 04:10:00,39.3,10.5,30.02,SW,224,2.0,4.0,30,0.00,,,0.00,VWS V14.01,2013-04-20 11:10:00,
2013-04-20 04:15:00,39.2,10.4,30.02,SW,223,3.0,4.0,30,0.00,,,0.00,VWS V14.01,2013-04-20 11:15:00,
2013-04-20 04:20:00,39.0,10.2,30.02,West,271,2.0,4.0,30,0.00,,,0.00,VWS V14.01,2013-04-20 11:20:00,
2013-04-20 04:25:00,38.9,10.1,30.02,WSW,256,1.0,4.0,30,0.00,,,0.00,VWS V14.01,2013-04-20 11:25:00,
2013-04-20 04:30:00,38.7,9.9,30.02,WSW,256,0.0,1.0,30,0.00,,,0.00,VWS V14.01,2013-04-20 11:30:00,
2013-04-20 04:35:00,38.5,9.8,30.02,West,266,2.0,3.0,30,0.00,,,0.00,VWS V14.01,2013-04-20 11:35:00,
2013-04-20 04:40:00,38.2,9.5,30.03,West,266,1.0,3.0,30,0.00,,,0.00,VWS V14.01,2013-04-20 11:40:00,
2013-04-20 04:45:00,37.9,9.2,30.03,West,266,1.0,3.0,30,0.00,,,0.00,VWS V14.01,2013-04-20 11:45:00,
2013-04-20 04:50:00,37.7,9.1,30.03,West,266,1.0,3.0,30,0.00,,,0.00,VWS V14.01,2013-04-20 11:50:00,
2013-04-20 04:55:00,37.4,9.5,30.03,West,270,0.0,3.0,31,0.00,,,0.00,VWS V14.01,2013-04-20 11:55:00,
2013-04-20 05:00:00,37.2,9.4,30.02,West,270,1.0,2.0,31,0.00,,,0.00,VWS V14.01,2013-04-20 12:00:00,
2013-04-20 05:05:00,36.9,9.1,30.02,West,270,2.0,2.0,31,0.00,,,0.00,VWS V14.01,2013-04-20 12:05:00,
2013-04-20 05:10:00,36.9,9.1,30.02,West,270,2.0,3.0,31,0.00,,,0.00,VWS V14.01,2013-04-20 12:10:00,
2013-04-20 05:15:00,36.9,9.1,30.02,West,270,1.0,3.0,31,0.00,,,0.00,VWS V14.01,2013-04-20 12:15:00,
2013-04-20 05:20:00,36.9,9.1,30.02,WSW,250,4.0,4.0,31,0.00,,,0.00,VWS V14.01,2013-04-20 12:20:00,
2013-04-20 05:25:00,36.9,8.4,30.02,WSW,249,3.0,5.0,30,0.00,,,0.00,VWS V14.01,2013-04-20 12:25:00,
2013-04-20 05:30:00,37.0,8.5,30.02,West,262,3.0,4.0,30,0.00,,,0.00,VWS V14.01,2013-04-20 12:30:00,
2013-04-20 05:35:00,37.4,8.8,30.02,WSW,246,3.0,5.0,30,0.00,,,0.00,VWS V14.01,2013-04-20 12:35:00,
2013-04-20 05:40:00,37.6,9.0,30.02,WSW,249,4.0,5.0,30,0.00,,,0.00,VWS V14.01,2013-04-20 12:40:00,
2013-04-20 05:45:00,37.8,9.9,30.02,WSW,246,2.0,5.0,31,0.00,,,0.00,VWS V14.01,2013-04-20 12:45:00,
2013-04-20 05:50:00,37.8,9.9,30.03,WSW,245,1.0,5.0,31,0.00,,,0.00,VWS V14.01,2013-04-20 12:50:00,
2013-04-20 05:55:00,37.7,10.5,30.03,WSW,248,2.0,5.0,32,0.00,,,0.00,VWS V14.01,2013-04-20 12:55:00,
2013-04-20 06:00:00,37.5,10.3,30.03,WSW,244,1.0,2.0,32,0.00,,,0.00,VWS V14.01,2013-04-20 13:00:00,
2013-04-20 06:06:00,37.3,10.9,30.03,WSW,244,1.0,2.0,33,0.00,,,0.00,VWS V14.01,2013-04-20 13:06:00,
2013-04-20 06:11:00,37.2,10.1,30.03,WSW,243,2.0,3.0,32,0.00,,,0.00,VWS V14.01,2013-04-20 13:11:00,
2013-04-20 06:16:00,37.2,10.1,30.03,WSW,249,2.0,3.0,32,0.00,,,0.00,VWS V14.01,2013-04-20 13:16:00,
2013-04-20 06:21:00,37.5,10.3,30.03,SW,234,2.0,3.0,32,0.00,,,0.00,VWS V14.01,2013-04-20 13:21:00,
2013-04-20 06:26:00,38.2,9.5,30.03,WSW,238,2.0,4.0,30,0.00,,,0.00,VWS V14.01,2013-04-20 13:26:00,
2013-04-20 06:30:00,38.9,10.1,30.03,WSW,248,2.0,4.0,30,0.00,,,0.00,VWS V14.01,2013-04-20 13:30:00,
2013-04-20 06:31:00,39.3,10.5,30.03,WSW,254,2.0,3.0,30,0.00,,,0.00,VWS V14.01,2013-04-20 13:31:00,
2013-04-20 06:36:00,40.7,10.9,30.03,WSW,249,1.0,4.0,29,0.00,,,0.00,VWS V14.01,2013-04-20 13:36:00,
2013-04-20 06:41:00,41.9,11.2,30.03,WSW,256,2.0,4.0,28,0.00,,,0.00,VWS V14.01,2013-04-20 13:41:00,
2013-04-20 06:46:00,42.9,12.1,30.03,West,259,1.0,4.0,28,0.00,,,0.00,VWS V14.01,2013-04-20 13:46:00,
2013-04-20 06:51:00,43.8,12.0,30.04,West,259,1.0,4.0,27,0.00,,,0.00,VWS V14.01,2013-04-20 13:51:00,
2013-04-20 06:56:00,44.7,12.8,30.04,West,259,1.0,4.0,27,0.00,,,0.00,VWS V14.01,2013-04-20 13:56:00,
2013-04-20 07:00:00,45.4,13.4,30.04,West,259,1.0,4.0,27,0.00,,,0.00,VWS V14.01,2013-04-20 14:00:00,
2013-04-20 07:01:00,45.6,14.4,30.04,West,259,2.0,2.0,28,0.00,,,0.00,VWS V14.01,2013-04-20 14:01:00,
2013-04-20 07:06:00,46.5,15.2,30.04,West,259,1.0,3.0,28,0.00,,,0.00,VWS V14.01,2013-04-20 14:06:00,
2013-04-20 07:11:00,47.5,16.0,30.05,West,259,0.0,3.0,28,0.00,,,0.00,VWS V14.01,2013-04-20 14:11:00,
2013-04-20 07:16:00,48.7,16.2,30.05,West,259,1.0,3.0,27,0.00,,,0.00,VWS V14.01,2013-04-20 14:16:00,
2013-04-20 07:21:00,50.3,16.7,30.05,West,259,0.0,3.0,26,0.00,,,0.00,VWS V14.01,2013-04-20 14:21:00,
2013-04-20 07:26:00,52.0,16.4,30.06,West,259,0.0,3.0,24,0.00,,,0.00,VWS V14.01,2013-04-20 14:26:00,
2013-04-20 07:30:00,53.4,17.5,30.05,West,259,1.0,3.0,24,0.00,,,0.00,VWS V14.01,2013-04-20 14:30:00,
2013-04-20 07:31:00,54.2,18.2,30.05,West,259,0.0,1.0,24,0.00,,,0.00,VWS V14.01,2013-04-20 14:31:00,
2013-04-20 07:36:00,56.5,18.1,30.05,NNW,330,1.0,3.0,22,0.00,,,0.00,VWS V14.01,2013-04-20 14:36:00,
2013-04-20 07:41:00,57.4,16.7,30.05,WNW,301,0.0,3.0,20,0.00,,,0.00,VWS V14.01,2013-04-20 14:41:00,
2013-04-20 07:46:00,57.6,15.7,30.05,North,0,1.0,3.0,19,0.00,,,0.00,VWS V14.01,2013-04-20 14:46:00,
2013-04-20 07:51:00,57.4,16.7,30.06,NE,45,4.0,5.0,20,0.00,,,0.00,VWS V14.01,2013-04-20 14:51:00,
2013-04-20 07:56:00,57.5,16.8,30.06,ENE,58,3.0,5.0,20,0.00,,,0.00,VWS V14.01,2013-04-20 14:56:00,
2013-04-20 08:00:00,57.4,16.7,30.06,NNE,16,2.0,5.0,20,0.00,,,0.00,VWS V14.01,2013-04-20 15:00:00,
2013-04-20 08:01:00,57.5,16.8,30.06,NE,34,5.0,7.0,20,0.00,,,0.00,VWS V14.01,2013-04-20 15:01:00,
2013-04-20 08:06:00,57.3,16.6,30.06,NE,36,1.0,7.0,20,0.00,,,0.00,VWS V14.01,2013-04-20 15:06:00,
2013-04-20 08:11:00,57.4,15.5,30.06,ENE,60,4.0,8.0,19,0.00,,,0.00,VWS V14.01,2013-04-20 15:11:00,
2013-04-20 08:16:00,57.5,16.8,30.06,NNE,33,3.0,8.0,20,0.00,,,0.00,VWS V14.01,2013-04-20 15:16:00,
2013-04-20 08:21:00,58.0,17.2,30.06,North,359,1.0,9.0,20,0.00,,,0.00,VWS V14.01,2013-04-20 15:21:00,
2013-04-20 08:26:00,58.1,17.3,30.06,NE,50,0.0,9.0,20,0.00,,,0.00,VWS V14.01,2013-04-20 15:26:00,
2013-04-20 08:30:00,58.3,17.4,30.06,ENE,57,4.0,9.0,20,0.00,,,0.00,VWS V14.01,2013-04-20 15:30:00,
2013-04-20 08:31:00,58.4,19.7,30.06,ENE,60,2.0,6.0,22,0.00,,,0.00,VWS V14.01,2013-04-20 15:31:00,
2013-04-20 08:36:00,59.1,18.1,30.06,NNE,14,2.0,7.0,20,0.00,,,0.00,VWS V14.01,2013-04-20 15:36:00,
2013-04-20 08:42:00,59.7,18.6,30.06,NE,35,5.0,7.0,20,0.00,,,0.00,VWS V14.01,2013-04-20 15:42:00,
2013-04-20 08:47:00,59.6,16.1,30.06,North,357,3.0,10.0,18,0.00,,,0.00,VWS V14.01,2013-04-20 15:47:00,
2013-04-20 08:52:00,59.8,16.2,30.06,North,356,10.0,12.0,18,0.00,,,0.00,VWS V14.01,2013-04-20 15:52:00,
2013-04-20 08:57:00,59.8,16.2,30.06,North,354,4.0,12.0,18,0.00,,,0.00,VWS V14.01,2013-04-20 15:57:00,
2013-04-20 09:00:00,59.7,16.1,30.06,North,358,5.0,15.0,18,0.00,,,0.00,VWS V14.01,2013-04-20 16:00:00,
2013-04-20 09:02:00,59.7,16.1,30.06,NNE,21,3.0,8.0,18,0.00,,,0.00,VWS V14.01,2013-04-20 16:02:00,
2013-04-20 09:07:00,59.9,16.3,30.06,NE,43,3.0,9.0,18,0.00,,,0.00,VWS V14.01,2013-04-20 16:07:00,
2013-04-20 09:12:00,60.0,16.4,30.06,ENE,67,3.0,12.0,18,0.00,,,0.00,VWS V14.01,2013-04-20 16:12:00,
2013-04-20 09:17:00,60.1,17.7,30.06,NE,44,10.0,12.0,19,0.00,,,0.00,VWS V14.01,2013-04-20 16:17:00,
2013-04-20 09:22:00,60.0,16.4,30.06,ENE,72,5.0,12.0,18,0.00,,,0.00,VWS V14.01,2013-04-20 16:22:00,
2013-04-20 09:27:00,60.4,16.7,30.06,NNE,30,8.0,13.0,18,0.00,,,0.00,VWS V14.01,2013-04-20 16:27:00,
2013-04-20 09:30:00,60.5,16.8,30.06,North,2,3.0,13.0,18,0.00,,,0.00,VWS V14.01,2013-04-20 16:30:00,
2013-04-20 09:32:00,60.4,18.0,30.06,NNW,340,6.0,11.0,19,0.00,,,0.00,VWS V14.01,2013-04-20 16:32:00,
2013-04-20 09:37:00,60.6,18.1,30.06,NNE,14,6.0,14.0,19,0.00,,,0.00,VWS V14.01,2013-04-20 16:37:00,
2013-04-20 09:42:00,60.2,17.8,30.06,North,356,3.0,14.0,19,0.00,,,0.00,VWS V14.01,2013-04-20 16:42:00,
2013-04-20 09:47:00,60.5,18.1,30.07,North,351,4.0,15.0,19,0.00,,,0.00,VWS V14.01,2013-04-20 16:47:00,
2013-04-20 09:52:00,60.5,19.2,30.07,East,89,2.0,15.0,20,0.00,,,0.00,VWS V14.01,2013-04-20 16:52:00,
2013-04-20 09:57:00,60.8,18.3,30.07,North,352,4.0,15.0,19,0.00,,,0.00,VWS V14.01,2013-04-20 16:57:00,
2013-04-20 10:00:00,60.7,18.2,30.07,North,5,5.0,15.0,19,0.00,,,0.00,VWS V14.01,2013-04-20 17:00:00,
2013-04-20 10:02:00,60.7,18.2,30.07,North,7,5.0,9.0,19,0.00,,,0.00,VWS V14.01,2013-04-20 17:02:00,
2013-04-20 10:07:00,61.0,18.5,30.07,NNE,28,8.0,20.0,19,0.00,,,0.00,VWS V14.01,2013-04-20 17:07:00,
2013-04-20 10:12:00,61.2,18.6,30.07,NNE,24,3.0,20.0,19,0.00,,,0.00,VWS V14.01,2013-04-20 17:12:00,
2013-04-20 10:17:00,61.6,15.0,30.07,NNE,17,3.0,20.0,16,0.00,,,0.00,VWS V14.01,2013-04-20 17:17:00,
2013-04-20 10:22:00,61.4,14.8,30.07,North,8,2.0,20.0,16,0.00,,,0.00,VWS V14.01,2013-04-20 17:22:00,
2013-04-20 10:27:00,61.8,16.5,30.07,NE,43,5.0,20.0,17,0.00,,,0.00,VWS V14.01,2013-04-20 17:27:00,
2013-04-20 10:30:00,62.1,16.8,30.07,NE,39,4.0,20.0,17,0.00,,,0.00,VWS V15.00,2013-04-20 17:30:00,
2013-04-20 10:32:00,62.4,17.0,30.07,NNW,340,8.0,9.0,17,0.00,,,0.00,VWS V14.01,2013-04-20 17:32:00,
2013-04-20 10:37:00,62.7,15.9,30.07,North,352,3.0,12.0,16,0.00,,,0.00,VWS V14.01,2013-04-20 17:37:00,
2013-04-20 10:42:00,62.8,16.0,30.07,NNE,18,7.0,14.0,16,0.00,,,0.00,VWS V14.01,2013-04-20 17:42:00,
2013-04-20 10:47:00,63.1,16.2,30.07,NW,311,3.0,14.0,16,0.00,,,0.00,VWS V14.01,2013-04-20 17:47:00,
2013-04-20 10:52:00,63.5,16.5,30.06,NNW,337,3.0,14.0,16,0.00,,,0.00,VWS V14.01,2013-04-20 17:52:00,
2013-04-20 10:57:00,63.4,16.5,30.06,NNW,327,4.0,14.0,16,0.00,,,0.00,VWS V14.01,2013-04-20 17:57:00,
2013-04-20 11:00:00,63.3,16.4,30.06,NW,323,11.0,14.0,16,0.00,,,0.00,VWS V15.00,2013-04-20 18:00:00,
2013-04-20 11:02:00,63.4,16.5,30.06,NNE,14,5.0,11.0,16,0.00,,,0.00,VWS V14.01,2013-04-20 18:02:00,
2013-04-20 11:07:00,64.0,16.9,30.06,NNE,14,5.0,14.0,16,0.00,,,0.00,VWS V14.01,2013-04-20 18:07:00,
2013-04-20 11:12:00,64.3,17.2,30.06,NNE,28,3.0,14.0,16,0.00,,,0.00,VWS V14.01,2013-04-20 18:12:00,
2013-04-20 11:17:00,64.9,17.7,30.06,North,356,2.0,16.0,16,0.00,,,0.00,VWS V14.01,2013-04-20 18:17:00,
2013-04-20 11:22:00,64.6,17.4,30.06,NNW,342,3.0,16.0,16,0.00,,,0.00,VWS V14.01,2013-04-20 18:22:00,
2013-04-20 11:27:00,64.8,17.6,30.05,NNW,334,10.0,20.0,16,0.00,,,0.00,VWS V14.01,2013-04-20 18:27:00,
2013-04-20 11:30:00,64.9,17.7,30.06,NNW,348,11.0,20.0,16,0.00,,,0.00,VWS V14.01,2013-04-20 18:30:00,
2013-04-20 11:32:00,65.1,17.8,30.05,NNW,340,7.0,17.0,16,0.00,,,0.00,VWS V14.01,2013-04-20 18:32:00,
2013-04-20 11:37:00,65.6,19.6,30.06,WNW,302,8.0,17.0,17,0.00,,,0.00,VWS V14.01,2013-04-20 18:37:00,
2013-04-20 11:42:00,66.0,18.5,30.05,North,356,6.0,18.0,16,0.00,,,0.00,VWS V14.01,2013-04-20 18:42:00,
2013-04-20 11:47:00,65.8,18.4,30.06,North,356,9.0,20.0,16,0.00,,,0.00,VWS V14.01,2013-04-20 18:47:00,
2013-04-20 11:52:00,66.0,18.5,30.05,North,11,14.0,20.0,16,0.00,,,0.00,VWS V14.01,2013-04-20 18:52:00,
2013-04-20 11:57:00,66.3,20.2,30.05,NNW,330,12.0,20.0,17,0.00,,,0.00,VWS V14.01,2013-04-20 18:57:00,
2013-04-20 12:00:00,66.5,21.7,30.06,NW,324,14.0,20.0,18,0.00,,,0.00,VWS V14.01,2013-04-20 19:00:00,
2013-04-20 12:02:00,66.4,18.9,30.05,North,356,5.0,15.0,16,0.00,,,0.00,VWS V14.01,2013-04-20 19:02:00,
2013-04-20 12:07:00,66.3,18.8,30.05,NNW,339,11.0,20.0,16,0.00,,,0.00,VWS V14.01,2013-04-20 19:07:00,
2013-04-20 12:12:00,66.1,20.0,30.05,NNW,342,10.0,20.0,17,0.00,,,0.00,VWS V14.01,2013-04-20 19:12:00,
2013-04-20 12:17:00,66.6,20.5,30.04,North,351,4.0,20.0,17,0.00,,,0.00,VWS V14.01,2013-04-20 19:17:00,
2013-04-20 12:22:00,67.5,22.5,30.04,NNW,342,10.0,20.0,18,0.00,,,0.00,VWS V14.01,2013-04-20 19:22:00,
2013-04-20 12:27:00,68.1,20.2,30.04,West,281,4.0,20.0,16,0.00,,,0.00,VWS V14.01,2013-04-20 19:27:00,
2013-04-20 12:30:00,69.0,22.4,30.04,NNW,330,10.0,20.0,17,0.00,,,0.00,VWS V14.01,2013-04-20 19:30:00,
2013-04-20 12:32:00,69.0,21.0,30.04,North,355,3.0,13.0,16,0.00,,,0.00,VWS V14.01,2013-04-20 19:32:00,
2013-04-20 12:37:00,68.5,22.0,30.04,North,8,9.0,20.0,17,0.00,,,0.00,VWS V14.01,2013-04-20 19:37:00,
2013-04-20 12:42:00,68.0,21.6,30.04,NW,322,9.0,21.0,17,0.00,,,0.00,VWS V14.01,2013-04-20 19:42:00,
2013-04-20 12:47:00,67.9,20.1,30.04,NNW,343,6.0,21.0,16,0.00,,,0.00,VWS V14.01,2013-04-20 19:47:00,
2013-04-20 12:52:00,69.0,21.0,30.04,NW,319,4.0,21.0,16,0.00,,,0.00,VWS V14.01,2013-04-20 19:52:00,
2013-04-20 12:57:00,69.9,20.2,30.04,West,277,8.0,21.0,15,0.00,,,0.00,VWS V14.01,2013-04-20 19:57:00,
2013-04-20 13:00:00,70.4,20.6,30.04,WNW,302,7.0,21.0,15,0.00,,,0.00,VWS V14.01,2013-04-20 20:00:00,
2013-04-20 13:02:00,70.3,20.5,30.05,WNW,302,8.0,19.0,15,0.00,,,0.00,VWS V14.01,2013-04-20 20:02:00,
2013-04-20 13:08:00,70.1,20.3,30.04,NW,316,9.0,20.0,15,0.00,,,0.00,VWS V14.01,2013-04-20 20:08:00,
2013-04-20 13:13:00,69.9,21.7,30.04,NNW,328,5.0,20.0,16,0.00,,,0.00,VWS V14.01,2013-04-20 20:13:00,
2013-04-20 13:18:00,69.7,21.5,30.04,NW,326,5.0,20.0,16,0.00,,,0.00,VWS V14.01,2013-04-20 20:18:00,
2013-04-20 13:23:00,69.9,21.7,30.04,NW,319,5.0,20.0,16,0.00,,,0.00,VWS V14.01,2013-04-20 20:23:00,
2013-04-20 13:28:00,69.7,21.5,30.04,NNW,338,7.0,20.0,16,0.00,,,0.00,VWS V14.01,2013-04-20 20:28:00,
2013-04-20 13:30:00,69.6,21.5,30.04,WNW,302,6.0,20.0,16,0.00,,,0.00,VWS V14.01,2013-04-20 20:30:00,
2013-04-20 13:33:00,69.9,21.7,30.04,NW,317,12.0,15.0,16,0.00,,,0.00,VWS V14.01,2013-04-20 20:33:00,
2013-04-20 13:38:00,70.1,21.9,30.03,West,279,9.0,20.0,16,0.00,,,0.00,VWS V14.01,2013-04-20 20:38:00,
2013-04-20 13:43:00,70.4,22.1,30.03,NNW,338,15.0,20.0,16,0.00,,,0.00,VWS V14.01,2013-04-20 20:43:00,
2013-04-20 13:48:00,70.4,22.1,30.03,NW,324,5.0,20.0,16,0.00,,,0.00,VWS V14.01,2013-04-20 20:48:00,
2013-04-20 13:53:00,70.1,21.9,30.03,NW,316,8.0,20.0,16,0.00,,,0.00,VWS V14.01,2013-04-20 20:53:00,
2013-04-20 13:58:00,70.4,22.1,30.03,NNW,337,9.0,20.0,16,0.00,,,0.00,VWS V14.01,2013-04-20 20:58:00,
2013-04-20 14:00:00,70.3,22.0,30.03,NW,320,6.0,20.0,16,0.00,,,0.00,VWS V14.01,2013-04-20 21:00:00,
2013-04-20 14:03:00,70.2,21.9,30.03,NNW,335,8.0,15.0,16,0.00,,,0.00,VWS V14.01,2013-04-20 21:03:00,
2013-04-20 14:08:00,70.3,22.0,30.02,NW,325,3.0,15.0,16,0.00,,,0.00,VWS V14.01,2013-04-20 21:08:00,
2013-04-20 14:13:00,70.6,22.3,30.02,WNW,286,4.0,15.0,16,0.00,,,0.00,VWS V14.01,2013-04-20 21:13:00,
2013-04-20 14:18:00,71.1,22.7,30.02,WNW,302,2.0,15.0,16,0.00,,,0.00,VWS V14.01,2013-04-20 21:18:00,
2013-04-20 14:23:00,71.6,23.1,30.02,West,279,6.0,15.0,16,0.00,,,0.00,VWS V14.01,2013-04-20 21:23:00,
2013-04-20 14:28:00,72.3,23.6,30.02,NW,320,6.0,15.0,16,0.00,,,0.00,VWS V14.01,2013-04-20 21:28:00,
2013-04-20 14:30:00,72.3,22.1,30.02,NNW,327,13.0,15.0,15,0.00,,,0.00,VWS V14.01,2013-04-20 21:30:00,
2013-04-20 14:33:00,71.3,19.7,30.02,North,356,5.0,14.0,14,0.00,,,0.00,VWS V14.01,2013-04-20 21:33:00,
2013-04-20 14:38:00,70.8,19.3,30.02,North,351,6.0,16.0,14,0.00,,,0.00,VWS V14.01,2013-04-20 21:38:00,
2013-04-20 14:43:00,71.2,19.6,30.02,NW,319,17.0,20.0,14,0.00,,,0.00,VWS V14.01,2013-04-20 21:43:00,
2013-04-20 14:48:00,70.8,17.6,30.02,NW,315,4.0,20.0,13,0.00,,,0.00,VWS V14.01,2013-04-20 21:48:00,
2013-04-20 14:53:00,71.0,17.7,30.02,NW,309,9.0,20.0,13,0.00,,,0.00,VWS V14.01,2013-04-20 21:53:00,
2013-04-20 14:59:00,71.3,19.7,30.02,WNW,286,9.0,20.0,14,0.00,,,0.00,VWS V14.01,2013-04-20 21:59:00,
2013-04-20 15:00:00,71.4,19.8,30.01,WNW,303,8.0,20.0,14,0.00,,,0.00,VWS V14.01,2013-04-20 22:00:00,
2013-04-20 15:04:00,72.0,20.2,30.02,NNE,25,4.0,11.0,14,0.00,,,0.00,VWS V14.01,2013-04-20 22:04:00,
2013-04-20 15:09:00,71.9,20.2,30.02,NNW,345,8.0,16.0,14,0.00,,,0.00,VWS V14.01,2013-04-20 22:09:00,
2013-04-20 15:14:00,71.1,19.5,30.01,NW,317,6.0,17.0,14,0.00,,,0.00,VWS V14.01,2013-04-20 22:14:00,
2013-04-20 15:19:00,71.5,19.8,30.02,NNW,332,12.0,17.0,14,0.00,,,0.00,VWS V14.01,2013-04-20 22:19:00,
2013-04-20 15:24:00,71.6,21.5,30.01,WSW,247,4.0,17.0,15,0.00,,,0.00,VWS V14.01,2013-04-20 22:24:00,
2013-04-20 15:29:00,72.4,22.2,30.01,NW,313,5.0,17.0,15,0.00,,,0.00,VWS V14.01,2013-04-20 22:29:00,
2013-04-20 15:30:00,72.3,22.1,30.01,WNW,295,4.0,17.0,15,0.00,,,0.00,VWS V14.01,2013-04-20 22:30:00,
2013-04-20 15:34:00,72.2,22.0,30.01,WNW,294,7.0,20.0,15,0.00,,,0.00,VWS V14.01,2013-04-20 22:34:00,
2013-04-20 15:39:00,72.0,21.9,30.01,NW,308,4.0,20.0,15,0.00,,,0.00,VWS V14.01,2013-04-20 22:39:00,
2013-04-20 15:44:00,72.0,21.9,30.01,West,271,6.0,20.0,15,0.00,,,0.00,VWS V14.01,2013-04-20 22:44:00,
2013-04-20 15:49:00,72.5,20.6,30.01,West,272,5.0,20.0,14,0.00,,,0.00,VWS V14.01,2013-04-20 22:49:00,
2013-04-20 15:54:00,73.0,21.0,30.02,WNW,286,8.0,20.0,14,0.00,,,0.00,VWS V14.01,2013-04-20 22:54:00,
2013-04-20 15:59:00,72.5,20.6,30.01,SW,223,4.0,20.0,14,0.00,,,0.00,VWS V14.01,2013-04-20 22:59:00,
2013-04-20 16:00:00,72.5,20.6,30.01,SW,223,4.0,20.0,14,0.00,,,0.00,VWS V14.01,2013-04-20 23:00:00,
2013-04-20 16:04:00,72.5,20.6,30.01,West,269,18.0,18.0,14,0.00,,,0.00,VWS V14.01,2013-04-20 23:04:00,
2013-04-20 16:09:00,72.5,20.6,30.01,West,280,6.0,18.0,14,0.00,,,0.00,VWS V14.01,2013-04-20 23:09:00,
2013-04-20 16:15:00,72.5,20.6,30.00,WNW,295,11.0,18.0,14,0.00,,,0.00,VWS V14.01,2013-04-20 23:15:00,
2013-04-20 16:20:00,72.4,20.5,30.00,WNW,285,2.0,18.0,14,0.00,,,0.00,VWS V14.01,2013-04-20 23:20:00,
2013-04-20 16:25:00,71.7,20.0,30.01,NW,305,6.0,21.0,14,0.00,,,0.00,VWS V14.01,2013-04-20 23:25:00,
2013-04-20 16:30:00,71.4,19.8,30.00,West,280,11.0,13.0,14,0.00,,,0.00,VWS V14.01,2013-04-20 23:30:00,
2013-04-20 16:35:00,71.6,19.9,30.01,NW,307,4.0,17.0,14,0.00,,,0.00,VWS V14.01,2013-04-20 23:35:00,
2013-04-20 16:40:00,71.3,19.7,30.01,NW,315,4.0,17.0,14,0.00,,,0.00,VWS V14.01,2013-04-20 23:40:00,
2013-04-20 16:46:00,71.1,19.5,30.01,NW,324,4.0,17.0,14,0.00,,,0.00,VWS V14.01,2013-04-20 23:46:00,
2013-04-20 16:51:00,70.8,19.3,30.01,North,352,5.0,17.0,14,0.00,,,0.00,VWS V14.01,2013-04-20 23:51:00,
2013-04-20 16:56:00,70.3,18.9,30.01,NW,324,10.0,17.0,14,0.00,,,0.00,VWS V14.01,2013-04-20 23:56:00,
2013-04-20 17:00:00,70.1,18.7,30.01,WNW,298,10.0,17.0,14,0.00,,,0.00,VWS V14.01,2013-04-21 00:00:00,
2013-04-20 17:01:00,70.0,18.6,30.01,NW,322,6.0,10.0,14,0.00,,,0.00,VWS V14.01,2013-04-21 00:01:00,
2013-04-20 17:06:00,70.0,18.6,30.01,WNW,303,4.0,10.0,14,0.00,,,0.00,VWS V14.01,2013-04-21 00:06:00,
2013-04-20 17:11:00,70.1,18.7,30.01,NW,308,5.0,13.0,14,0.00,,,0.00,VWS V14.01,2013-04-21 00:11:00,
2013-04-20 17:16:00,70.0,18.6,30.01,NW,306,3.0,13.0,14,0.00,,,0.00,VWS V14.01,2013-04-21 00:16:00,
2013-04-20 17:22:00,69.6,18.3,30.01,NNW,339,3.0,13.0,14,0.00,,,0.00,VWS V14.01,2013-04-21 00:22:00,
2013-04-20 17:27:00,69.5,18.2,30.01,NW,323,8.0,14.0,14,0.00,,,0.00,VWS V14.01,2013-04-21 00:27:00,
2013-04-20 17:30:00,69.2,18.0,30.01,WNW,299,9.0,14.0,14,0.00,,,0.00,VWS V14.01,2013-04-21 00:30:00,
2013-04-20 17:32:00,69.1,17.9,30.01,WSW,252,7.0,10.0,14,0.00,,,0.00,VWS V14.01,2013-04-21 00:32:00,
2013-04-20 17:37:00,68.9,17.8,30.01,West,266,8.0,12.0,14,0.00,,,0.00,VWS V14.01,2013-04-21 00:37:00,
2013-04-20 17:42:00,68.7,17.6,30.01,WSW,252,10.0,13.0,14,0.00,,,0.00,VWS V14.01,2013-04-21 00:42:00,
2013-04-20 17:47:00,68.6,17.5,30.01,SW,236,3.0,14.0,14,0.00,,,0.00,VWS V14.01,2013-04-21 00:47:00,
2013-04-20 17:52:00,68.3,17.3,30.01,West,278,7.0,14.0,14,0.00,,,0.00,VWS V14.01,2013-04-21 00:52:00,
2013-04-20 17:57:00,68.0,15.4,30.01,WNW,299,8.0,14.0,13,0.00,,,0.00,VWS V14.01,2013-04-21 00:57:00,
2013-04-20 18:00:00,67.8,15.2,30.02,NW,309,4.0,14.0,13,0.00,,,0.00,VWS V14.01,2013-04-21 01:00:00,
2013-04-20 18:02:00,67.7,15.1,30.02,WNW,283,5.0,9.0,13,0.00,,,0.00,VWS V14.01,2013-04-21 01:02:00,
2013-04-20 18:07:00,67.5,15.0,30.01,WNW,286,7.0,11.0,13,0.00,,,0.00,VWS V14.01,2013-04-21 01:07:00,
2013-04-20 18:12:00,67.3,14.8,30.01,West,273,6.0,11.0,13,0.00,,,0.00,VWS V14.01,2013-04-21 01:12:00,
2013-04-20 18:17:00,67.0,16.3,30.01,West,262,5.0,12.0,14,0.00,,,0.00,VWS V14.01,2013-04-21 01:17:00,
2013-04-20 18:22:00,66.7,14.3,30.02,WNW,288,5.0,12.0,13,0.00,,,0.00,VWS V14.01,2013-04-21 01:22:00,
2013-04-20 18:27:00,66.4,14.1,30.02,WNW,302,3.0,12.0,13,0.00,,,0.00,VWS V14.01,2013-04-21 01:27:00,
2013-04-20 18:30:00,66.2,13.9,30.02,West,273,5.0,12.0,13,0.00,,,0.00,VWS V14.01,2013-04-21 01:30:00,
2013-04-20 18:32:00,66.1,13.9,30.02,West,274,4.0,9.0,13,0.00,,,0.00,VWS V14.01,2013-04-21 01:32:00,
2013-04-20 18:38:00,65.7,13.5,30.02,WNW,282,9.0,9.0,13,0.00,,,0.00,VWS V14.01,2013-04-21 01:38:00,
2013-04-20 18:43:00,65.4,13.3,30.02,West,280,2.0,11.0,13,0.00,,,0.00,VWS V14.01,2013-04-21 01:43:00,
2013-04-20 18:48:00,65.0,13.0,30.03,West,275,4.0,11.0,13,0.00,,,0.00,VWS V14.01,2013-04-21 01:48:00,
2013-04-20 18:53:00,64.7,12.8,30.03,West,277,6.0,11.0,13,0.00,,,0.00,VWS V14.01,2013-04-21 01:53:00,
2013-04-20 18:58:00,64.2,12.4,30.03,WNW,284,5.0,11.0,13,0.00,,,0.00,VWS V14.01,2013-04-21 01:58:00,
2013-04-20 19:00:00,64.1,12.3,30.03,West,278,5.0,11.0,13,0.00,,,0.00,VWS V14.01,2013-04-21 02:00:00,
2013-04-20 19:03:00,63.7,13.6,30.03,NW,306,5.0,7.0,14,0.00,,,0.00,VWS V14.01,2013-04-21 02:03:00,
2013-04-20 19:08:00,63.3,13.3,30.03,NW,315,5.0,7.0,14,0.00,,,0.00,VWS V14.01,2013-04-21 02:08:00,
2013-04-20 19:13:00,63.0,13.1,30.04,NNW,345,1.0,7.0,14,0.00,,,0.00,VWS V14.01,2013-04-21 02:13:00,
2013-04-20 19:18:00,62.4,12.6,30.04,NNW,334,4.0,7.0,14,0.00,,,0.00,VWS V14.01,2013-04-21 02:18:00,
2013-04-20 19:23:00,62.1,12.4,30.04,NNW,346,3.0,7.0,14,0.00,,,0.00,VWS V14.01,2013-04-21 02:23:00,
2013-04-20 19:28:00,62.1,12.4,30.04,NNW,328,4.0,7.0,14,0.00,,,0.00,VWS V14.01,2013-04-21 02:28:00,
2013-04-20 19:30:00,62.1,12.4,30.04,NNW,329,2.0,7.0,14,0.00,,,0.00,VWS V14.01,2013-04-21 02:30:00,
2013-04-20 19:33:00,62.0,12.3,30.04,NNW,348,2.0,6.0,14,0.00,,,0.00,VWS V14.01,2013-04-21 02:33:00,
2013-04-20 19:38:00,61.8,12.1,30.04,NNW,333,2.0,6.0,14,0.00,,,0.00,VWS V14.01,2013-04-21 02:38:00,
2013-04-20 19:43:00,61.3,11.7,30.05,NW,317,2.0,6.0,14,0.00,,,0.00,VWS V14.01,2013-04-21 02:43:00,
2013-04-20 19:48:00,60.8,11.3,30.05,West,280,3.0,6.0,14,0.00,,,0.00,VWS V14.01,2013-04-21 02:48:00,
2013-04-20 19:53:00,60.2,12.4,30.05,West,277,2.0,6.0,15,0.00,,,0.00,VWS V14.01,2013-04-21 02:53:00,
2013-04-20 19:58:00,59.5,11.8,30.06,West,274,2.0,6.0,15,0.00,,,0.00,VWS V14.01,2013-04-21 02:58:00,
2013-04-20 20:00:00,59.3,11.7,30.06,West,274,2.0,6.0,15,0.00,,,0.00,VWS V14.01,2013-04-21 03:00:00,
2013-04-20 20:03:00,58.8,11.3,30.05,West,274,2.0,2.0,15,0.00,,,0.00,VWS V14.01,2013-04-21 03:03:00,
2013-04-20 20:08:00,58.1,10.7,30.06,West,274,0.0,2.0,15,0.00,,,0.00,VWS V14.01,2013-04-21 03:08:00,
2013-04-20 20:13:00,57.4,11.6,30.06,West,274,0.0,2.0,16,0.00,,,0.00,VWS V14.01,2013-04-21 03:13:00,
2013-04-20 20:19:00,56.6,10.9,30.06,West,280,2.0,3.0,16,0.00,,,0.00,VWS V14.01,2013-04-21 03:19:00,
2013-04-20 20:24:00,55.8,10.3,30.06,WSW,251,2.0,4.0,16,0.00,,,0.00,VWS V14.01,2013-04-21 03:24:00,
2013-04-20 20:29:00,55.2,8.4,30.07,WSW,257,2.0,4.0,15,0.00,,,0.00,VWS V14.01,2013-04-21 03:29:00,
2013-04-20 20:30:00,55.2,8.4,30.06,WSW,257,2.0,4.0,15,0.00,,,0.00,VWS V14.01,2013-04-21 03:30:00,
2013-04-20 20:34:00,54.8,8.1,30.07,WNW,284,1.0,4.0,15,0.00,,,0.00,VWS V14.01,2013-04-21 03:34:00,
2013-04-20 20:39:00,54.4,7.7,30.07,WNW,288,1.0,4.0,15,0.00,,,0.00,VWS V14.01,2013-04-21 03:39:00,
2013-04-20 20:44:00,54.1,7.5,30.07,WNW,284,2.0,4.0,15,0.00,,,0.00,VWS V14.01,2013-04-21 03:44:00,
2013-04-20 20:49:00,53.9,7.3,30.07,West,268,2.0,4.0,15,0.00,,,0.00,VWS V14.01,2013-04-21 03:49:00,
2013-04-20 20:54:00,53.7,8.6,30.07,West,279,2.0,4.0,16,0.00,,,0.00,VWS V14.01,2013-04-21 03:54:00,
2013-04-20 20:59:00,53.5,8.4,30.08,West,277,2.0,4.0,16,0.00,,,0.00,VWS V14.01,2013-04-21 03:59:00,
2013-04-20 21:00:00,53.5,8.4,30.08,West,268,2.0,4.0,16,0.00,,,0.00,VWS V15.00,2013-04-21 04:00:00,
2013-04-20 21:01:00,53.4,8.4,30.08,West,265,3.0,3.0,16,0.00,,,0.00,VWS V14.01,2013-04-21 04:01:00,
2013-04-20 21:07:00,53.2,9.5,30.08,WSW,253,2.0,4.0,17,0.00,,,0.00,VWS V14.01,2013-04-21 04:07:00,
2013-04-20 21:12:00,52.8,9.2,30.08,WSW,255,1.0,4.0,17,0.00,,,0.00,VWS V14.01,2013-04-21 04:12:00,
2013-04-20 21:17:00,52.5,9.0,30.09,WSW,255,2.0,4.0,17,0.00,,,0.00,VWS V14.01,2013-04-21 04:17:00,
2013-04-20 21:22:00,52.1,9.9,30.09,WSW,255,0.0,4.0,18,0.00,,,0.00,VWS V14.01,2013-04-21 04:22:00,
2013-04-20 21:27:00,51.7,9.6,30.09,WSW,255,2.0,4.0,18,0.00,,,0.00,VWS V14.01,2013-04-21 04:27:00,
2013-04-20 21:30:00,51.5,9.4,30.09,WSW,255,2.0,4.0,18,0.00,,,0.00,VWS V14.01,2013-04-21 04:30:00,
2013-04-20 21:32:00,51.4,9.3,30.08,WSW,255,1.0,2.0,18,0.00,,,0.00,VWS V14.01,2013-04-21 04:32:00,
2013-04-20 21:37:00,51.0,9.0,30.09,WSW,255,0.0,2.0,18,0.00,,,0.00,VWS V14.01,2013-04-21 04:37:00,
2013-04-20 21:42:00,50.8,8.8,30.09,WSW,255,3.0,3.0,18,0.00,,,0.00,VWS V14.01,2013-04-21 04:42:00,
2013-04-20 21:47:00,50.5,9.8,30.10,WSW,257,0.0,3.0,19,0.00,,,0.00,VWS V14.01,2013-04-21 04:47:00,
2013-04-20 21:52:00,50.1,10.6,30.10,WSW,257,0.0,3.0,20,0.00,,,0.00,VWS V14.01,2013-04-21 04:52:00,
2013-04-20 21:57:00,49.8,10.4,30.10,WSW,257,0.0,3.0,20,0.00,,,0.00,VWS V14.01,2013-04-21 04:57:00,
2013-04-20 22:00:00,49.6,11.3,30.10,WSW,257,1.0,3.0,21,0.00,,,0.00,VWS V14.01,2013-04-21 05:00:00,
2013-04-20 22:02:00,49.4,10.0,30.10,WSW,257,1.0,2.0,20,0.00,,,0.00,VWS V14.01,2013-04-21 05:02:00,
2013-04-20 22:07:00,49.0,9.7,30.10,WSW,257,0.0,2.0,20,0.00,,,0.00,VWS V14.01,2013-04-21 05:07:00,
2013-04-20 22:12:00,48.6,11.5,30.10,WSW,257,0.0,2.0,22,0.00,,,0.00,VWS V14.01,2013-04-21 05:12:00,
2013-04-20 22:17:00,48.2,11.1,30.10,WSW,257,2.0,2.0,22,0.00,,,0.00,VWS V14.01,2013-04-21 05:17:00,
2013-04-20 22:22:00,47.9,8.8,30.10,West,266,2.0,3.0,20,0.00,,,0.00,VWS V14.01,2013-04-21 05:22:00,
2013-04-20 22:27:00,47.6,8.5,30.10,West,266,0.0,3.0,20,0.00,,,0.00,VWS V14.01,2013-04-21 05:27:00,
2013-04-20 22:30:00,47.6,8.5,30.10,NW,316,3.0,6.0,20,0.00,,,0.00,VWS V14.01,2013-04-21 05:30:00,
2013-04-20 22:32:00,47.7,9.7,30.09,NW,318,2.0,3.0,21,0.00,,,0.00,VWS V14.01,2013-04-21 05:32:00,
2013-04-20 22:37:00,47.8,9.8,30.10,West,271,2.0,4.0,21,0.00,,,0.00,VWS V14.01,2013-04-21 05:37:00,
2013-04-20 22:42:00,47.7,9.7,30.10,WSW,251,2.0,4.0,21,0.00,,,0.00,VWS V14.01,2013-04-21 05:42:00,
2013-04-20 22:47:00,47.5,8.4,30.10,WSW,246,0.0,4.0,20,0.00,,,0.00,VWS V14.01,2013-04-21 05:47:00,
2013-04-20 22:52:00,47.3,8.3,30.10,WSW,257,1.0,4.0,20,0.00,,,0.00,VWS V14.01,2013-04-21 05:52:00,
2013-04-20 22:57:00,47.1,9.2,30.10,WSW,257,1.0,4.0,21,0.00,,,0.00,VWS V14.01,2013-04-21 05:57:00,
2013-04-20 23:00:00,46.9,10.1,30.10,WSW,257,0.0,4.0,22,0.00,,,0.00,VWS V14.01,2013-04-21 06:00:00,
2013-04-20 23:02:00,46.7,9.9,30.10,WSW,257,0.0,2.0,22,0.00,,,0.00,VWS V14.01,2013-04-21 06:02:00,
2013-04-20 23:07:00,46.4,9.6,30.10,WSW,257,0.0,2.0,22,0.00,,,0.00,VWS V14.01,2013-04-21 06:07:00,
2013-04-20 23:12:00,46.0,9.3,30.10,WSW,257,0.0,2.0,22,0.00,,,0.00,VWS V14.01,2013-04-21 06:12:00,
2013-04-20 23:17:00,45.6,9.9,30.10,West,270,1.0,3.0,23,0.00,,,0.00,VWS V14.01,2013-04-21 06:17:00,
2013-04-20 23:22:00,45.1,10.5,30.11,West,269,1.0,3.0,24,0.00,,,0.00,VWS V14.01,2013-04-21 06:22:00,
2013-04-20 23:27:00,44.7,10.1,30.10,West,269,2.0,3.0,24,0.00,,,0.00,VWS V14.01,2013-04-21 06:27:00,
2013-04-20 23:30:00,44.6,10.1,30.10,WSW,255,2.0,3.0,24,0.00,,,0.00,VWS V14.01,2013-04-21 06:30:00,
2013-04-20 23:32:00,44.4,9.9,30.10,WSW,256,2.0,2.0,24,0.00,,,0.00,VWS V14.01,2013-04-21 06:32:00,
2013-04-20 23:37:00,44.3,9.8,30.10,West,264,1.0,4.0,24,0.00,,,0.00,VWS V14.01,2013-04-21 06:37:00,
2013-04-20 23:42:00,44.1,9.6,30.11,West,264,0.0,4.0,24,0.00,,,0.00,VWS V14.01,2013-04-21 06:42:00,
2013-04-20 23:47:00,44.0,9.5,30.10,WSW,248,2.0,4.0,24,0.00,,,0.00,VWS V14.01,2013-04-21 06:47:00,
2013-04-20 23:52:00,43.9,9.5,30.10,West,270,3.0,4.0,24,0.00,,,0.00,VWS V14.01,2013-04-21 06:52:00,
2013-04-20 23:57:00,43.9,9.5,30.10,WSW,256,3.0,5.0,24,0.00,,,0.00,VWS V14.01,2013-04-21 06:57:00,